Flag for France Weather past 2 weeks in Mulhouse, France

Now
57 °F

Overcast.


Feels Like: 57 °F
Forecast: 50 / 67 °F
Wind: No wind

Location: Bale-Mulhouse

Current Time: Aug 31, 2014 at 4:38:07 AM

Latest Report: Aug 31, 2014 at 4:00 AM


Visibility: N/A

Pressure: 30.04 "Hg

Humidity: 94%

Dew point: 55 °F

Location of MulhouseLocation

Historic Weather in Mulhouse — Graph

°F

Mulhouse temperature yesterday

Maximum temperature yesterday: 75 °F (at 4:30 PM)
Minimum temperature yesterday: 59 °F (at 7:00 AM)
Average temperature yesterday: 66 °F

Past Weeks' High & Low Weather Summary

 TemperatureHumidityPressure
High79 °F (Aug 28, 6:00 PM)100% (Aug 17, 12:00 AM)30.18 "Hg (Aug 17, 12:00 AM)
Low46 °F (Aug 21, 6:30 AM)40% (Aug 22, 1:30 PM)29.74 "Hg (Aug 26, 5:00 PM)
Average61 °F76%30.02 "Hg
* Reported Aug 16 3:00 AM — Aug 31 3:30 AM, Mulhouse, Weather by CustomWeather, © 2014

Note: Actual official high and low records may vary slightly from our data, if they occured in-between our weather recording intervals... More about our weather records

Advertising

Mulhouse weather history for previous 24 hours

 ConditionsComfort  
Time TempWeatherWind HumidityBarometerVisibility
3:30 AM
Aug 31
55 °FMostly cloudy.No wind100%30.04 "HgN/A
3:00 AM57 °FClear.3 mph94%30.04 "HgN/A
2:30 AM55 °FClear.No wind94%30.07 "HgN/A
2:00 AM55 °FClear.No wind94%30.07 "HgN/A
1:30 AM57 °FPassing clouds.No wind88%30.07 "HgN/A
1:00 AM57 °FPartly cloudy.1 mph94%30.07 "HgN/A
12:30 AM57 °FClear.No wind88%30.07 "Hg10 mi
12:00 AM59 °FPassing clouds.3 mph88%30.07 "HgN/A
11:30 PM
Aug 30
61 °FPassing clouds.3 mph83%30.09 "HgN/A
11:00 PM61 °FClear.2 mph83%30.09 "Hg10 mi
10:30 PM61 °FClear.3 mph83%30.09 "Hg10 mi
10:00 PM61 °FClear.2 mph83%30.09 "Hg10 mi
9:30 PM61 °FPassing clouds.3 mph88%30.09 "HgN/A
9:00 PM63 °FPartly sunny.2 mph77%30.07 "HgN/A
8:30 PM64 °FPartly sunny.5 mph78%30.07 "HgN/A
8:00 PM66 °FPartly sunny.5 mph73%30.07 "HgN/A
7:30 PM70 °FScattered clouds.5 mph60%30.07 "HgN/A
7:00 PM73 °FScattered clouds.6 mph53%30.07 "HgN/A
6:30 PM73 °FScattered clouds.8 mph50%30.07 "HgN/A
6:00 PM75 °FScattered clouds.8 mph50%30.07 "HgN/A
5:30 PM73 °FScattered clouds.7 mph50%30.07 "HgN/A
5:00 PM75 °FScattered clouds.6 mph50%30.07 "HgN/A
4:30 PM75 °FScattered clouds.7 mph50%30.07 "HgN/A
4:00 PM73 °FPassing clouds.8 mph53%30.07 "HgN/A
3:30 PM73 °FScattered clouds.7 mph50%30.09 "HgN/A
3:00 PM73 °FScattered clouds.8 mph53%30.09 "HgN/A
2:30 PM73 °FScattered clouds.7 mph57%30.09 "HgN/A
2:00 PM72 °FScattered clouds.6 mph57%30.12 "HgN/A
1:30 PM73 °FScattered clouds.3 mph57%30.12 "HgN/A
1:00 PM72 °FScattered clouds.7 mph61%30.12 "HgN/A
12:30 PM72 °FScattered clouds.7 mph57%30.12 "HgN/A
12:00 PM72 °FScattered clouds.5 mph53%30.12 "HgN/A
11:30 AM70 °FScattered clouds.6 mph60%30.12 "HgN/A
11:00 AM70 °FPartly sunny.5 mph60%30.12 "HgN/A
10:14 AM68 °FScattered clouds.2 mph73%30.12 "HgN/A
9:38 AM68 °FScattered clouds.1 mph78%30.12 "HgN/A
9:00 AM64 °FScattered clouds.2 mph88%30.12 "HgN/A
8:30 AM63 °FScattered clouds.3 mph94%30.12 "HgN/A
8:00 AM63 °FScattered clouds.2 mph94%30.12 "HgN/A
7:30 AM59 °FPassing clouds.2 mph94%30.12 "HgN/A
7:00 AM59 °FPassing clouds.No wind100%30.12 "HgN/A
6:30 AM61 °FFog.2 mph94%30.12 "HgN/A
6:00 AM61 °FPassing clouds.No wind94%30.12 "HgN/A
5:30 AM63 °FPartly cloudy.2 mph88%30.12 "HgN/A
5:00 AM63 °FPartly cloudy.2 mph94%30.12 "HgN/A
4:30 AM63 °FPassing clouds.2 mph94%30.12 "HgN/A
4:00 AM63 °FMostly cloudy.1 mph94%30.12 "HgN/A
Weather by CustomWeather, © 2014

See weather overviewHow to use our weather pages